This is the latest recevied weather packets stored in our database for station/object W8AN. If no packets are shown the sender has not sent any weather packets the latest 10 day(s).
| Time | Temp. | Humidity | Pressure | Rain* | Wind** | Luminosity | Snow |
|---|---|---|---|---|---|---|---|
| 1777567304 | 11.11° C | 58% | 4270.2 hPa | 0 mm | - | 170 W/m² | - |
| 1777567002 | 11.11° C | 59% | 4270 hPa | 0 mm | - | 865 W/m² | - |
| 1777566699 | 11.11° C | 60% | 4270 hPa | 0 mm | - | 867 W/m² | - |
| 1777566397 | 11.11° C | 61% | 4269.8 hPa | 0 mm | - | 188 W/m² | - |
| 1777566094 | 10° C | 62% | 4270.1 hPa | 0 mm | - | 912 W/m² | - |
| 1777565789 | 10.56° C | 62% | 4269.9 hPa | 0 mm | - | 176 W/m² | - |
| 1777565486 | 10° C | 63% | 4270 hPa | 0 mm | - | 953 W/m² | - |
| 1777565182 | 10.56° C | 62% | 4270.2 hPa | 0 mm | - | 184 W/m² | - |
| 1777564879 | 11.11° C | 62% | 4270 hPa | 0 mm | - | 224 W/m² | - |
| 1777564579 | 10.56° C | 62% | 4270.1 hPa | 0 mm | - | 680 W/m² | - |
| 1777564275 | 10.56° C | 61% | 4270.1 hPa | 0 mm | - | 590 W/m² | - |
| 1777563971 | 10° C | 65% | 4270.2 hPa | 0 mm | - | 179 W/m² | - |
| 1777563668 | 10° C | 59% | 4270.3 hPa | 0 mm | - | 937 W/m² | - |
| 1777563362 | 10° C | 64% | 4270.2 hPa | 0 mm | - | 187 W/m² | - |
| 1777563058 | 10.56° C | 66% | 4270 hPa | 0 mm | - | 290 W/m² | - |
| 1777562754 | 10° C | 65% | 4270.1 hPa | 0 mm | - | 907 W/m² | - |
| 1777562453 | 10° C | 65% | 4270.3 hPa | 0 mm | - | 907 W/m² | - |
| 1777562150 | 10° C | 67% | 4270.4 hPa | 0 mm | - | 923 W/m² | - |
| 1777561847 | 10° C | 64% | 4270.3 hPa | 0 mm | - | 919 W/m² | - |
| 1777561544 | 9.44° C | 69% | 4270.2 hPa | 0 mm | - | 824 W/m² | - |
| 1777561239 | 8.89° C | 67% | 4270.1 hPa | 0 mm | - | 806 W/m² | - |
| 1777560938 | 8.89° C | 70% | 4269.9 hPa | 0 mm | - | 778 W/m² | - |
| 1777560635 | 8.89° C | 70% | 4269.9 hPa | 0 mm | - | 778 W/m² | - |
| 1777560333 | 8.89° C | 71% | 4269.8 hPa | 0 mm | - | 420 W/m² | - |
| 1777560031 | 8.33° C | 71% | 4269.8 hPa | 0 mm | - | 824 W/m² | - |
* Rain latest hour (hover to see other rain measurements)
** Current wind speed in m/s (hover to see current wind gust speed)